TOURFACTS.DK  
Stats and Facts from Tour de France.

Tour de France 2017 starts in 2 days
  Riders   Stages   Teams   Summits   Yearly  


 
Search by year

 After:  2016 - Stage 21:
  14626 starters.
  5126 different riders.
  634 teams.
  2211 stages.
  454 restdays.
  436049.60 km.
  5622 abandonnees.


Top 3
Christopher Froome89:04:48
Romain Bardet89:08:53
Nairo Quintana89:09:09
Rafal Majka209 pt.
Thomas De Gendt130 pt.
Jarlinson Pantano ..121 pt.
Peter Sagan470 pt.
Marcel Kittel228 pt.
Michael Matthews199 pt.
Adam Yates89:09:30
Louis Meintjes89:11:46
Emanuel Buchmann89:52:28
Facts from Tour de France 2015
  |   Stages.  |   Stage winners.  |   Days in yellow  |   Average speed.  |   Route.  |   Teams.  |   All riders.  |   Rookies.  |   Withdrawls.  |  

  |   GC.  |   Polka  |   Green  |   White  |   Summits. (In tour)  |   Summits. (Points)  |   Miscellaneous.  |  

Stage 15 on 19 - 07 - 2015
         Owning:    Christopher Froome      Christopher Froome      Peter Sagan      Nairo Quintana  

Pick a stage:  1 2 3 4 5 6 7 8 10 11 12 13 14 15 16 17 18 19 20 21
  MendeValence | Dist: 182.00 km.
Cat: 3Côte de BadarouxBELSerge Pauwels2 points 
Cat: 4Col du BezFRAThibaut Pinot1 points 
Cat: 4Col de la Croix de BauzonAUSMichael Rogers1 points 
Cat: 2Col de l'EscrinetFRAThibaut Pinot5 points 

Average speed for all riders in stage:  45,412 km./hr.
    Place:Name:Team:Time:Km/h:
DEUAndré GreipelBELLotto Soudal03:56:35  +  00:00:00=46,157 
DEUJohn DegenkolbDEUTeam Giant Alpecin03:56:35  +  00:00:00=46,157 
NORAlexander KristoffRUSTeam Katusha03:56:35  +  00:00:00=46,157 
4 SVKPeter SaganRUSTinkoff Saxo03:56:35  +  00:00:00=46,157 
5 NOREdvald Boasson HagenZAFMTN - Qhubeka P/B Samsung03:56:35  +  00:00:00=46,157 
6 USRRamunas NavardauskasUSATeam Cannondale - Garmin03:56:35  +  00:00:00=46,157 
7 FRAChristophe LaporteFRACofidis – Solutions Crédits03:56:35  +  00:00:00=46,157 
8 AUSMichael MatthewsAUSOrica - GreenEDGE03:56:35  +  00:00:00=46,157 
9 ITADavide CimolaiITALampre-Merida03:56:35  +  00:00:00=46,157 
10 FRAFlorian VachonFRABretagne - Séché Environnement03:56:35  +  00:00:00=46,157 
11 COLJarlinson Pantano GomezCHEIAM Cycling03:56:35  +  00:00:00=46,157 
12 BELJan BakelantsFRAAg2r La Mondiale03:56:35  +  00:00:00=46,157 
13 DEUPaul VossDEUBora-Argon 1803:56:35  +  00:00:00=46,157 
14 DEUPaul MartensNLDTeam Lotto NL - Jumbo03:56:35  +  00:00:00=46,157 
15 FRABryan CoquardFRATeam Europcar03:56:35  +  00:00:00=46,157 
16 BELJulien VermoteBELEtixx - Quick Step03:56:35  +  00:00:00=46,157 
17 FRABrice FeilluFRABretagne - Séché Environnement03:56:35  +  00:00:00=46,157 
18 CHEGregory RastUSATrek Factory Racing03:56:35  +  00:00:00=46,157 
19 SVNKristjan KorenUSATeam Cannondale - Garmin03:56:35  +  00:00:00=46,157 
20 BELSerge PauwelsZAFMTN - Qhubeka P/B Samsung03:56:35  +  00:00:00=46,157 
21 BELGreg Van AvermaetUSABMC Racing Team03:56:35  +  00:00:00=46,157 
22 CZEJan BártaDEUBora-Argon 1803:56:35  +  00:00:00=46,157 
23 KENChristopher FroomeGBRSky Procycling03:56:35  +  00:00:00=46,157 
24 USRTanel KangertKAZAstana Pro Team03:56:35  +  00:00:00=46,157 
25 USATejay Van GarderenUSABMC Racing Team03:56:35  +  00:00:00=46,157 
26 PRTNelson OliveiraITALampre-Merida03:56:35  +  00:00:00=46,157 
27 CHEReto HollensteinCHEIAM Cycling03:56:35  +  00:00:00=46,157 
28 ESPSamuel SanchezUSABMC Racing Team03:56:35  +  00:00:00=46,157 
29 CZERoman KreuzigerRUSTinkoff Saxo03:56:35  +  00:00:00=46,157 
30 ITAVincenzo NibaliKAZAstana Pro Team03:56:35  +  00:00:00=46,157 
31 NLDRobert GesinkNLDTeam Lotto NL - Jumbo03:56:35  +  00:00:00=46,157 
32 FRAMickaël CherelFRAAg2r La Mondiale03:56:35  +  00:00:00=46,157 
33 WALGeraint ThomasGBRSky Procycling03:56:35  +  00:00:00=46,157 
34 ZAFReinardt Janse Van RensburgZAFMTN - Qhubeka P/B Samsung03:56:35  +  00:00:00=46,157 
35 ESPAlejandro ValverdeESPMovistar Team03:56:35  +  00:00:00=46,157 
36 FRAMatthieu LadagnousFRAFDJ03:56:35  +  00:00:00=46,157 
37 NLDBauke MollemaUSATrek Factory Racing03:56:35  +  00:00:00=46,157 
38 FRAWarren BarguilDEUTeam Giant Alpecin03:56:35  +  00:00:00=46,157 
39 FRARomain BardetFRAAg2r La Mondiale03:56:35  +  00:00:00=46,157 
40 ESPJonathan CastroviejoESPMovistar Team03:56:35  +  00:00:00=46,157 
41 ESPRubén PlazaITALampre-Merida03:56:35  +  00:00:00=46,157 
42 CHEMathias FrankCHEIAM Cycling03:56:35  +  00:00:00=46,157 
43 FRAPierre RollandFRATeam Europcar03:56:35  +  00:00:00=46,157 
44 CHEMartin ElmigerCHEIAM Cycling03:56:35  +  00:00:00=46,157 
45 COLJosé SerpaITALampre-Merida03:56:35  +  00:00:00=46,157 
46 ITAFilippo PozzatoITALampre-Merida03:56:35  +  00:00:00=46,157 
47 NLDRoy CurversDEUTeam Giant Alpecin03:56:35  +  00:00:00=46,157 
48 FRABenoit VaugrenardFRAFDJ03:56:35  +  00:00:00=46,157 
49 ESPAlberto ContadorRUSTinkoff Saxo03:56:35  +  00:00:00=46,157 
50 FRATony GallopinBELLotto Soudal03:56:35  +  00:00:00=46,157 
51 ESPHaimar ZubeldiaUSATrek Factory Racing03:56:35  +  00:00:00=46,157 
52 COLNairo QuintanaESPMovistar Team03:56:35  +  00:00:00=46,157 
53 ESPLuis Angel MateFRACofidis – Solutions Crédits03:56:35  +  00:00:00=46,157 
54 FRAThibaut PinotFRAFDJ03:56:35  +  00:00:00=46,157 
55 POLBartosz HuzarskiDEUBora-Argon 1803:56:35  +  00:00:00=46,157 
56 DNKLars BakBELLotto Soudal03:56:35  +  00:00:00=46,157 
57 ESPGorka Izaguirre InsaustiESPMovistar Team03:56:35  +  00:00:00=46,157 
58 NLDSteven KruijswijkNLDTeam Lotto NL - Jumbo03:56:35  +  00:00:00=46,157 
59 ZAFJacques Janse Van RensburgZAFMTN - Qhubeka P/B Samsung03:56:35  +  00:00:00=46,157 
60 ITAMichele ScarponiKAZAstana Pro Team03:56:35  +  00:00:00=46,157 
61 ITAAdriano MaloriESPMovistar Team03:56:35  +  00:00:00=46,157 
62 USAAndrew TalanskyUSATeam Cannondale - Garmin03:56:35  +  00:00:00=46,157 
63 NLDBram TankinkNLDTeam Lotto NL - Jumbo03:56:35  +  00:00:00=46,157 
64 ITAJacopo GuarnieriRUSTeam Katusha03:56:35  +  00:00:00=46,157 
65 PRTJosé João PimentaDEUBora-Argon 1803:56:55  +  00:00:20=46,092 
66 BELKenneth VanbilsenFRACofidis – Solutions Crédits03:56:57  +  00:00:22=46,086 
67 FRAAngelo TulikFRATeam Europcar03:56:59  +  00:00:24=46,079 
68 NLDKoen De KortDEUTeam Giant Alpecin03:57:12  +  00:00:37=46,037 
70 NLDLieuwe WestraKAZAstana Pro Team03:57:14  +  00:00:39=46,031 
69 NLDPieter WeeningAUSOrica - GreenEDGE03:57:21  +  00:00:46=46,008 
71 BELJens DebusschereBELLotto Soudal03:57:24  +  00:00:49=45,998 
72 ITAMatteo BonoITALampre-Merida03:57:36  +  00:01:01=45,960 
73 NLDJos Van EmdenNLDTeam Lotto NL - Jumbo03:57:36  +  00:01:01=45,960 
74 DNKMichael ValgrenRUSTinkoff Saxo03:57:36  +  00:01:01=45,960 
75 FRABryan NauleauFRATeam Europcar03:57:39  +  00:01:04=45,950 
76 AUSAdam HansenBELLotto Soudal03:57:41  +  00:01:06=45,943 
77 AUTMarco HallerRUSTeam Katusha03:57:49  +  00:01:14=45,918 
78 CZEZdenek StybarBELEtixx - Quick Step03:57:53  +  00:01:18=45,905 
79 AUTGeorg PreidlerDEUTeam Giant Alpecin03:57:56  +  00:01:21=45,895 
80 PRTTiago PintoRUSTeam Katusha03:58:20  +  00:01:45=45,818 
81 ITADamiano CarusoUSABMC Racing Team03:58:20  +  00:01:45=45,818 
82 CHEDanilo WyssUSABMC Racing Team03:58:20  +  00:01:45=45,818 
83 NLDWilco KeldermanNLDTeam Lotto NL - Jumbo03:58:20  +  00:01:45=45,818 
84 LUXBob JungelsUSATrek Factory Racing03:58:20  +  00:01:45=45,818 
85 CHEMichael SchärUSABMC Racing Team03:58:20  +  00:01:45=45,818 
86 FRAArnaud GérardFRABretagne - Séché Environnement03:58:20  +  00:01:45=45,818 
87 WALLuke RoweGBRSky Procycling03:58:20  +  00:01:45=45,818 
88 FRANicolas RocheGBRSky Procycling03:58:20  +  00:01:45=45,818 
89 ITAMatteo TosattoRUSTinkoff Saxo03:58:20  +  00:01:45=45,818 
90 FRAJulien SimonFRACofidis – Solutions Crédits03:58:20  +  00:01:45=45,818 
91 ENGIan StannardGBRSky Procycling03:58:20  +  00:01:45=45,818 
92 FRAYohann GèneFRATeam Europcar03:58:20  +  00:01:45=45,818 
93 ITADaniel OssUSABMC Racing Team03:58:20  +  00:01:45=45,818 
94 NLDStef ClementCHEIAM Cycling03:58:49  +  00:02:14=45,725 
95 FRAAlexis VuillermozFRAAg2r La Mondiale03:58:49  +  00:02:14=45,725 
96 FRAPierrick FédrigoFRABretagne - Séché Environnement03:58:49  +  00:02:14=45,725 
97 CHEMarcel WyssCHEIAM Cycling03:58:49  +  00:02:14=45,725 
98 FRASylvain ChavanelCHEIAM Cycling03:58:49  +  00:02:14=45,725 
99 ERIMerhawi GhebremedhinZAFMTN - Qhubeka P/B Samsung03:58:49  +  00:02:14=45,725 
100 FRAPierre-Luc PérichonFRABretagne - Séché Environnement03:59:31  +  00:02:56=45,592 
101 AUSLuke DurbridgeAUSOrica - GreenEDGE03:59:34  +  00:02:59=45,582 
102 DEUSimon GeschkeDEUTeam Giant Alpecin03:59:53  +  00:03:18=45,522 
103 FRACyril GautierFRATeam Europcar03:59:53  +  00:03:18=45,522 
104 HRVKristijan DurasekITALampre-Merida03:59:53  +  00:03:18=45,522 
105 UKRAndriy GrivkoKAZAstana Pro Team04:00:16  +  00:03:41=45,450 
106 KAZDmitriy GruzdevKAZAstana Pro Team04:00:16  +  00:03:41=45,450 
107 CANSvein TuftAUSOrica - GreenEDGE04:00:22  +  00:03:47=45,431 
108 AUSRohan DennisUSABMC Racing Team04:00:56  +  00:04:21=45,324 
109 ITAManuel QuinziatoUSABMC Racing Team04:00:56  +  00:04:21=45,324 
110 ITAGiampaolo CarusoRUSTeam Katusha04:00:56  +  00:04:21=45,324 
111 ESPJoaquim RodriguezRUSTeam Katusha04:00:56  +  00:04:21=45,324 
112 FRADamien GaudinFRAAg2r La Mondiale04:00:56  +  00:04:21=45,324 
113 FRAChristophe RiblonFRAAg2r La Mondiale04:00:56  +  00:04:21=45,324 
114 CHEJakob FuglsangKAZAstana Pro Team04:00:56  +  00:04:21=45,324 
115 AUSRichie PorteGBRSky Procycling04:00:56  +  00:04:21=45,324 
116 FRANicolas EdetFRACofidis – Solutions Crédits04:00:56  +  00:04:21=45,324 
117 ESPDaniel NavarroFRACofidis – Solutions Crédits04:00:56  +  00:04:21=45,324 
118 NLDAlbert TimmerDEUTeam Giant Alpecin04:00:56  +  00:04:21=45,324 
119 FRAThomas VoecklerFRATeam Europcar04:00:56  +  00:04:21=45,324 
120 DEUEmanuel BuchmannDEUBora-Argon 1804:00:56  +  00:04:21=45,324 
121 FRAPerrig QuemeneurFRATeam Europcar04:00:56  +  00:04:21=45,324 
122 COLWinner AnaconaESPMovistar Team04:00:56  +  00:04:21=45,324 
123 BELThomas De GendtBELLotto Soudal04:00:56  +  00:04:21=45,324 
124 NLDLaurens ten DamNLDTeam Lotto NL - Jumbo04:00:56  +  00:04:21=45,324 
125 POLMichal KwiatkowskiBELEtixx - Quick Step04:00:56  +  00:04:21=45,324 
126 LUXLaurent DidierUSATrek Factory Racing04:00:56  +  00:04:21=45,324 
127 COLJulián ArredondoUSATrek Factory Racing04:00:56  +  00:04:21=45,324 
128 COLRigoberto UranBELEtixx - Quick Step04:00:56  +  00:04:21=45,324 
129 AUSMichael RogersRUSTinkoff Saxo04:00:56  +  00:04:21=45,324 
130 ESPRafael Valls FerriITALampre-Merida04:00:56  +  00:04:21=45,324 
131 ESPJosé Herrada LópezESPMovistar Team04:00:56  +  00:04:21=45,324 
132 CZELeopold KönigGBRSky Procycling04:00:56  +  00:04:21=45,324 
133 BELTim WellensBELLotto Soudal04:00:56  +  00:04:21=45,324 
134 ENGDaniel MartinUSATeam Cannondale - Garmin04:02:01  +  00:05:26=45,121 
135 ENGAdam YatesAUSOrica - GreenEDGE04:02:01  +  00:05:26=45,121 
136 ITAMatteo TrentinBELEtixx - Quick Step04:02:01  +  00:05:26=45,121 
137 POLRafal MajkaRUSTinkoff Saxo04:02:01  +  00:05:26=45,121 
138 ESPAlberto LosadaRUSTeam Katusha04:02:01  +  00:05:26=45,121 
139 FRAAlexandre GeniezFRAFDJ04:02:01  +  00:05:26=45,121 
140 NLDWout PoelsGBRSky Procycling04:02:01  +  00:05:26=45,121 
141 NLDDylan Van BaarleUSATeam Cannondale - Garmin04:02:01  +  00:05:26=45,121 
142 FRARomain SicardFRATeam Europcar04:02:01  +  00:05:26=45,121 
143 ENGStephen CummingsZAFMTN - Qhubeka P/B Samsung04:02:01  +  00:05:26=45,121 
144 CANRyder HesjedalUSATeam Cannondale - Garmin04:02:01  +  00:05:26=45,121 
145 ZAFLouis MeintjesZAFMTN - Qhubeka P/B Samsung04:02:01  +  00:05:26=45,121 
146 AUSNathan HaasUSATeam Cannondale - Garmin04:12:16  +  00:15:41=43,288 
147 BELSam BennettDEUBora-Argon 1804:12:16  +  00:15:41=43,288 
148 ERIDaniel TeklehaimanotZAFMTN - Qhubeka P/B Samsung04:12:16  +  00:15:41=43,288 
149 DEUMarcel SiebergBELLotto Soudal04:12:16  +  00:15:41=43,288 
150 POLMichal GolasBELEtixx - Quick Step04:12:16  +  00:15:41=43,288 
151 IMNMark CavendishBELEtixx - Quick Step04:12:16  +  00:15:41=43,288 
152 AUSMark RenshawBELEtixx - Quick Step04:12:16  +  00:15:41=43,288 
153 ESPMarkel IrizarUSATrek Factory Racing04:12:16  +  00:15:41=43,288 
154 USATyler FarrarZAFMTN - Qhubeka P/B Samsung04:12:16  +  00:15:41=43,288 
155 FRAFrédéric BrunFRABretagne - Séché Environnement04:12:16  +  00:15:41=43,288 
156 BELStijn DevolderUSATrek Factory Racing04:12:16  +  00:15:41=43,288 
157 FRAAnthony DelaplaceFRABretagne - Séché Environnement04:12:16  +  00:15:41=43,288 
158 FRAFlorian SénéchalFRACofidis – Solutions Crédits04:12:16  +  00:15:41=43,288 
159 FRAGeoffrey SoupeFRACofidis – Solutions Crédits04:12:16  +  00:15:41=43,288 
160 FRAArnaud DémareFRAFDJ04:12:16  +  00:15:41=43,288 
161 FRAArmindo FonsecaFRABretagne - Séché Environnement04:12:16  +  00:15:41=43,288 
162 FRAJérémy RoyFRAFDJ04:12:16  +  00:15:41=43,288 
163 ESPImanol ErvitiESPMovistar Team04:12:16  +  00:15:41=43,288 
164 FRASébastien ChavanelFRAFDJ04:12:16  +  00:15:41=43,288 
165 AUTMatthias BrändleCHEIAM Cycling04:12:16  +  00:15:41=43,288 
166 FRAJean-Christophe PeraudFRAAg2r La Mondiale04:12:16  +  00:15:41=43,288 
167 IMNPeter KennaughGBRSky Procycling04:12:16  +  00:15:41=43,288 
168 ENGSimon YatesAUSOrica - GreenEDGE04:12:16  +  00:15:41=43,288 
169 FRAJérôme CoppelCHEIAM Cycling04:12:16  +  00:15:41=43,288 
170 BELSep VanmarckeNLDTeam Lotto NL - Jumbo04:12:16  +  00:15:41=43,288 
171 NLDTom LeezerNLDTeam Lotto NL - Jumbo04:12:16  +  00:15:41=43,288 

Withdrawls: 1
 
Rider
Team
Reason
166  NLDSebastian LangeveldUSATeam Cannondale - GarminDid not finish

Todays birthdays.

1888  René Etien
1891  Arturo Ferrario
1913  Léon Theerlynck
1921  Roger Piel
1929  Antonio Ferraz
1930  Rizzardo Brenioli
1934  Orphée Meneghini
1943  Pietro Guerra
1961  Marc Somers
1964  Ettore Badolato
1967  Miguel Angel Martinez
1968  Davide Bramati
1981  Vasil Kiryienka